Regional Weather Roundup
Issued by NWS

Home | Current Version | Previous Version | Text Only | Print | Product List | Glossary On
Versions: 1 2 3 4 5 6 7 8 9 10 11 12 13 14 15 16 17 18 19 20 21 22 23 24 25 26 27 28 29 30 31 32 33 34 35 36 37 38 39 40 41 42 43 44 45 46 47 48 49 50
000
ASUS42 KTBW 301310
RWRFL
FLORIDA REGIONAL WEATHER ROUNDUP
NATIONAL WEATHER SERVICE TAMPA BAY RUSKIN FL
800 AM EST FRI JAN 30 2015

NOTE: "FAIR" INDICATES FEW OR NO CLOUDS BELOW 12,000 FEET WITH NO
SIGNIFICANT WEATHER AND/OR OBSTRUCTIONS TO VISIBILITY.


FLZ001>010-012>015-112-114-115-301400-
PANHANDLE FLORIDA

CITY           SKY/WX    TMP DP  RH WIND       PRES   REMARKS
PENSACOLA      PTCLDY    46  37  71 N12G22    30.29R WCI  41
PENSACOLA NAS  MOCLDY    47  38  71 N10G21    30.29R WCI  42
MILTON NAS     MOCLDY    45  36  70 N8        30.31R WCI  41
CRESTVIEW      MOCLDY    46  39  76 N8        30.30R WCI  42
VALPARAISO     PTCLDY    48  41  74 N10       30.27R WCI  44
MARY ESTHER    MOCLDY    48  37  66 N20       30.27R WCI  41
TRI COUNTY     FAIR      47  38  71 N13G22    30.29R WCI  41
PANAMA CITY    FAIR      51  43  74 NW10      30.24R
TYNDALL AFB    PTCLDY    55  49  81 N12G20    30.24R
APALACHICOLA   CLOUDY    60  54  80 N12       30.21R

STATION/POSITION SKY/WX   TEMP    WIND        PRES    WAVE   SWELL
                          AIR SEA DIR/SP/G            HT/PER HT/PER
                          (F)     (DEG/KT/KT) (MB)    (FT/S) (FT/S)
30.1N   87.6W              52 62  360/ 19/ 23 1024.7R   3/ 4
29.2N   88.2W              60 68   30/ 21/ 27 1025.0    5/ 5
28.7N   86.0W              66 69  350/ 19/ 23 1023.0    3/ 4
PANAMA CITY BEAC           54 60  350/ 10/ 16 1023.7R
CAPE SAN BLAS    NOT AVBL
TOWER C                    60     350/ 17/ 18 1022.4R
28.5N   84.5W              68 67  280/ 14/ 16 1022.6R   2/ 4

$$
FLZ011-016>038-118-127-128-134-139-239-301400-
NORTH FLORIDA

CITY           SKY/WX    TMP DP  RH WIND       PRES   REMARKS
MARIANNA       PTCLDY    47  40  76 N13       30.26R WCI  41
TALLAHASSEE    MOCLDY    56  50  80 NW12      30.20R
PERRY          CLOUDY    56  56  97 NW7       30.20R
CROSS CITY       N/A     55  53  93 CALM      30.18R
LAKE CITY      MOCLDY    50  50 100 SW3       30.17S FOG
GAINESVILLE    MOCLDY    53  51  93 W8        30.17S
MAYPORT NAS    CLOUDY    55  51  86 W9        30.14R
JACKSONVILLE   MOCLDY    53  53 100 W8        30.14R
JAX NAS        CLOUDY    54  49  83 W7        30.16R
JAX CRAIG      CLOUDY    54  50  86 W9        30.15R
JAX CECIL      CLOUDY    54  52  94 W10       30.16R
FERNANDINA BEA PTSUNNY   59  54  82 W12       30.13R
ST AUGUSTINE   CLOUDY    53  51  93 SW8       30.16S

STATION/POSITION SKY/WX   TEMP    WIND        PRES    WAVE   SWELL
                          AIR SEA DIR/SP/G            HT/PER HT/PER
                          (F)     (DEG/KT/KT) (MB)    (FT/S) (FT/S)
SHELL POINT                58     310/  6/  9   N/A
KEATON BEACH               56     320/  5/  6 1022.4R
CEDAR KEY                  58     250/  3/  5 1022.4R
FERNANDINA                 53 55  260/  8/ 10 1019.9R
30.7N   81.3W                 56                N/A     3/11   2/11
MAYPORT                    55 57  260/ 11/ 13 1020.6R
31.4N   80.9W              53 53  270/ 16/ 17 1019.2R   3/10   2/10
ST AUGUSTINE               52     240/  8/  9 1021.7R

$$
FLZ040-043>046-052-053-057-058-063-144-301400-
INTERIOR CENTRAL FLORIDA

CITY           SKY/WX    TMP DP  RH WIND       PRES   REMARKS
OCALA          FOG       45  43  93 S5        30.19S VSB 1/2 WCI  42
THE VILLAGES     N/A     48  48 100 S5        30.10S FOG
LEESBURG       PTCLDY    51  49  92 SW3       30.20S
SANFORD        PTCLDY    52  44  74 SW7       30.20R
ORLANDO EXEC   CLEAR     51  45  79 SW3       30.20R
ORLANDO INTL   PTCLDY    48  46  93 SW5       30.22R
KISSIMMEE      CLEAR     46  46 100 CALM      30.22
WINTER HAVEN   CLEAR     50  47  89 CALM      30.23R
LAKELAND       CLEAR     45  43  93 CALM      30.23R
BARTOW         CLEAR     43  43 100 CALM      30.23R
OKEECHOBEE     CLEAR     45  45 100 NW3       30.23R

$$
FLZ041-047-054-059-064-141-147-301400-
EAST CENTRAL FLORIDA

CITY           SKY/WX    TMP DP  RH WIND       PRES   REMARKS
ORMOND BEACH   CLEAR     46  45  93 CALM      30.19R
DAYTONA BEACH  MOCLDY    50  46  86 W5        30.20R
DELAND         PTSUNNY  N/A N/A N/A SW5       30.20R
NEW SMYRNA BEA CLEAR     46  45  93 CALM      30.20S
JFK SPACE CTR  CLEAR     48  46  91 W2        30.19R
TITUSVILLE     CLEAR     45  45 100 SW6       30.21R WCI  41
CAPE CANAVERAL CLEAR     49  46  90 W6        30.20R
PATRICK AFB    CLEAR     55  49  79 W6        30.20S
MELBOURNE      CLEAR     50  47  89 W3        30.20S
VERO BEACH     CLEAR     50  48  93 W5        30.22R
FT PIERCE      CLEAR     49  47  93 W3        30.22R
STUART         PTCLDY    54  50  87 CALM      30.22R

STATION/POSITION SKY/WX   TEMP    WIND        PRES    WAVE   SWELL
                          AIR SEA DIR/SP/G            HT/PER HT/PER
                          (F)     (DEG/KT/KT) (MB)    (FT/S) (FT/S)
28.5N   80.2W              62 68  300/ 12/ 16 1022.3R
28.9N   78.5W              70 74  270/ 17/ 19 1021.1R   5/10   5/10
TRIDENT PIER               56 62  260/  3/  4 1022.1S
28.4N   80.5W                 62                N/A     2/11   2/11
27.6N   80.2W                 65                N/A     3/11   2/11

$$
FLZ050-056-061-142-242-148-248-149-249-151-251-155-255-
160-260-301400-
WEST CENTRAL FLORIDA

CITY           SKY/WX    TMP DP  RH WIND       PRES   REMARKS
CRYSTAL RIVER  CLOUDY    43  43 100 CALM      30.20S FOG
INVERNESS      CLOUDY    41  41 100 CALM      30.21R FOG
BROOKSVILLE    PTCLDY    43  41  93 CALM      30.22R HAZE
ZEPHYRHILLS    FAIR      41  39  93 CALM      30.23S
CLEARWATER     PTCLDY    50  50 100 S5        30.22R
TAMPA INTL     PTCLDY    53  49  86 CALM      30.22R FOG
TAMPA EXEC     CLEAR     45  43  93 CALM      30.23R
PLANT CITY       N/A    N/A N/A N/A MISG        N/A
MACDILL AFB    CLEAR     46  46  97 S1        30.22S
PETER O KNIGHT CLEAR     52  50  93 CALM      30.23R
ST PETERSBURG  CLEAR     56  52  86 SW3       30.21R
SARASOTA       CLEAR     48  46  93 CALM      30.22R
VENICE         FAIR      48  48 100 CALM      30.24R

STATION/POSITION SKY/WX   TEMP    WIND        PRES    WAVE   SWELL
                          AIR SEA DIR/SP/G            HT/PER HT/PER
                          (F)     (DEG/KT/KT) (MB)    (FT/S) (FT/S)
CEDAR KEY                  58     250/  3/  5 1022.4R
28.5N   84.5W              68 67  280/ 14/ 16 1022.6R   2/ 4
27.3N   84.3W                 72                N/A     2/ 3
CLEARWATER BEACH           57 60  160/  3/  3 1022.8R
MIDDLE TAMPA BAY           58     190/  4/  5 1023.7R
VENICE                     58 63   50/  6/  6 1023.6R

$$
FLZ066-069-070-075>078-162-262-165-265-301400-
SOUTHWEST FLORIDA AND KEYS

CITY           SKY/WX    TMP DP  RH WIND       PRES   REMARKS
PUNTA GORDA    CLEAR     47  46  97 CALM      30.25R
FT MYERS       CLEAR     51  49  92 CALM      30.22R
SOUTHWEST INTL CLEAR     51  48  89 CALM      30.23R
NAPLES         CLEAR     53  50  89 CALM      30.22R
MARCO ISLAND   PTSUNNY   52  46  82 CALM      30.21S
IMMOKALEE      SUNNY    N/A N/A N/A CALM      30.22S
MARATHON       MOSUNNY   64  57  78 N9        30.20R
KEY WEST NAS   MOCLDY    66  56  70 N8        30.20R
KEY WEST INTL  CLEAR     65  57  75 N8        30.20R

STATION/POSITION SKY/WX   TEMP    WIND        PRES    WAVE   SWELL
                          AIR SEA DIR/SP/G            HT/PER HT/PER
                          (F)     (DEG/KT/KT) (MB)    (FT/S) (FT/S)
VENICE                     58 63   50/  6/  6 1023.6R
NAPLES                     55 72   80/  4/  5 1023.6R
26.0N   85.6W              67 72  330/  6/  8 1023.8R   2/ 5   2/ 5
DRY TORTUGAS               67      40/ 13/ 14 1022.4R
NW FL BAY                  62      10/  9/ 10 1022.3R
SAND KEY                   67      10/ 16/ 19 1022.5R
SOMBRERO KEY               65      20/ 17/ 18 1022.6R
LONG KEY                   63 65   10/ 12/ 13 1022.7R
MOLASSES REEF              64 75  350/ 13/ 14 1022.1R

$$
FLZ067-068-071>074-168-172>174-301400-
SOUTHEAST FLORIDA

CITY           SKY/WX    TMP DP  RH WIND       PRES   REMARKS
W PALM BEACH   MOSUNNY   57  51  80 NW6       30.19R
FT LAUDER-EXEC MOSUNNY   58  52  80 W3        30.20R
FT LAUDERDALE  PTSUNNY   59  53  80 NW6       30.20R
POMPANO BEACH  MOSUNNY   61  51  70 NW3       30.20R
PEMBROKE PINES CLOUDY    60  53  77 NW6       30.22R
OPA LOCKA      PTSUNNY   61  52  72 NW7       30.21R
MIAMI          PTSUNNY   62  52  69 NW7       30.21R
WEST KENDALL   SUNNY     58  53  84 NW5       30.21R
HOMESTEAD      SUNNY     59  53  79 NW7       30.20R

STATION/POSITION SKY/WX   TEMP    WIND        PRES    WAVE   SWELL
                          AIR SEA DIR/SP/G            HT/PER HT/PER
                          (F)     (DEG/KT/KT) (MB)    (FT/S) (FT/S)
PORT EVERGLADES            63     300/  7/  9 1022.3
VIRGINIA KEY               63 69  360/  2/  4 1022.9R



USA.gov is the U.S. government's official web portal to all federal, state and local government web resources and services.